Location: Unspecified
(40.7945°N, 0.0000°E)
Time: 21:04:55
(UTC+00:00)

Explorer 7 - Pass Details

Date: 20 June 2021
Orbit: 484 x 676 km, 50.3° (Epoch: 30 July)

Event Time Altitude Azimuth Distance (km) Brightness Sun altitude
Rises 20:34:54 0° 237° (WSW) 3,008 10.8 -9.8°
Reaches altitude 10° 20:37:15 10° 238° (WSW) 2,103 10.0 -10.1°
Maximum altitude 20:42:09 84° 326° (NW) 681 7.3 -10.8°
Drops below altitude 10° 20:47:01 10° 56° (NE) 2,085 9.7 -11.5°
Sets 20:49:20 0° 57° (ENE) 2,981 10.4 -11.8°
